Meteo pe oră la Alkmaar

Astăzi, 18 Ianuarie, Luni

Timp Temperatura Precipitaţii Vânt Presiune Umiditate
00:00 +3°C° 0 mm 4 m/s 766 mmHg 90%
01:00 +2°C° 0 mm 5 m/s 766 mmHg 91%
02:00 +2°C° 0 mm 5 m/s 765 mmHg 91%
03:00 +2°C° 0 mm 6 m/s 765 mmHg 92%
04:00 +2°C° 0 mm 6 m/s 765 mmHg 91%
05:00 +3°C° 0 mm 6 m/s 765 mmHg 90%
06:00 +3°C° 0 mm 6 m/s 764 mmHg 91%
07:00 +3°C° 0 mm 6 m/s 764 mmHg 89%
08:00 +3°C° 0 mm 7 m/s 764 mmHg 87%
09:00 +4°C° 0 mm 7 m/s 764 mmHg 86%
10:00 +4°C° 0 mm 8 m/s 764 mmHg 84%
11:00 +4°C° 0 mm 8 m/s 763 mmHg 82%
12:00 +5°C° 0 mm 8 m/s 763 mmHg 80%
13:00 +4°C° 0 mm 8 m/s 763 mmHg 80%
14:00 +4°C° 0 mm 8 m/s 763 mmHg 80%
15:00 +4°C° 0 mm 8 m/s 762 mmHg 80%
16:00 +4°C° 0 mm 7 m/s 762 mmHg 81%
17:00 +4°C° 0 mm 7 m/s 762 mmHg 81%
18:00 +4°C° 0 mm 7 m/s 761 mmHg 81%
19:00 +4°C° 0 mm 7 m/s 761 mmHg 82%
20:00 +3°C° 0 mm 7 m/s 761 mmHg 83%
21:00 +3°C° 0 mm 7 m/s 760 mmHg 84%
22:00 +4°C° 0.3 mm 7 m/s 760 mmHg 87%
23:00 +4°C° 0.3 mm 8 m/s 759 mmHg 89%

Mâine, 19 Ianuarie, Marţi

Timp Temperatura Precipitaţii Vânt Presiune Umiditate
00:00 +4°C° 0.3 mm 8 m/s 758 mmHg 91%
01:00 +3°C° 1.3 mm 9 m/s 757 mmHg 91%
02:00 +3°C° 1.3 mm 10 m/s 755 mmHg 90%
03:00 +2°C° 1.3 mm 11 m/s 754 mmHg 90%
04:00 +3°C° 1.6 mm 11 m/s 753 mmHg 91%
05:00 +4°C° 1.6 mm 11 m/s 752 mmHg 92%
06:00 +6°C° 1.6 mm 10 m/s 751 mmHg 93%
07:00 +6°C° 1.1 mm 10 m/s 750 mmHg 93%
08:00 +7°C° 1.1 mm 10 m/s 750 mmHg 94%
09:00 +7°C° 1.1 mm 10 m/s 749 mmHg 94%
10:00 +7°C° 0.5 mm 11 m/s 749 mmHg 90%
11:00 +8°C° 0.5 mm 13 m/s 750 mmHg 87%
12:00 +8°C° 0.5 mm 14 m/s 750 mmHg 83%
13:00 +8°C° 0 mm 13 m/s 750 mmHg 84%
14:00 +8°C° 0 mm 12 m/s 749 mmHg 84%
15:00 +8°C° 0 mm 12 m/s 749 mmHg 84%
16:00 +7°C° 0.2 mm 12 m/s 749 mmHg 85%
17:00 +7°C° 0.2 mm 13 m/s 749 mmHg 86%
18:00 +7°C° 0.2 mm 13 m/s 749 mmHg 86%
19:00 +6°C° 0.8 mm 14 m/s 748 mmHg 85%
20:00 +6°C° 0.8 mm 15 m/s 748 mmHg 85%
21:00 +6°C° 0.8 mm 15 m/s 747 mmHg 84%
22:00 +6°C° 0.1 mm 15 m/s 747 mmHg 83%
23:00 +6°C° 0.1 mm 14 m/s 747 mmHg 82%

Poimâine, 20 Ianuarie, Miercuri

Timp Temperatura Precipitaţii Vânt Presiune Umiditate
00:00 +5°C° 0.1 mm 14 m/s 747 mmHg 80%
01:00 +6°C° 0.3 mm 14 m/s 746 mmHg 82%
02:00 +6°C° 0.3 mm 14 m/s 746 mmHg 83%
03:00 +6°C° 0.3 mm 14 m/s 745 mmHg 84%
04:00 +6°C° 0.4 mm 14 m/s 745 mmHg 84%
05:00 +6°C° 0.4 mm 14 m/s 744 mmHg 84%
06:00 +6°C° 0.4 mm 14 m/s 744 mmHg 85%
07:00 +6°C° 0.2 mm 14 m/s 744 mmHg 84%
08:00 +6°C° 0.2 mm 14 m/s 744 mmHg 84%
09:00 +7°C° 0.2 mm 13 m/s 744 mmHg 84%
10:00 +7°C° 0 mm 13 m/s 744 mmHg 83%
11:00 +5°C° 0 mm 13 m/s 744 mmHg 82%
12:00 +5°C° 0 mm 12 m/s 744 mmHg 82%
13:00 +5°C° 0 mm 12 m/s 743 mmHg 77%
14:00 +7°C° 0 mm 11 m/s 743 mmHg 73%
15:00 +7°C° 0 mm 11 m/s 742 mmHg 68%
16:00 +6°C° 0 mm 11 m/s 742 mmHg 68%
17:00 +6°C° 0 mm 11 m/s 742 mmHg 67%
18:00 +4°C° 0 mm 11 m/s 742 mmHg 67%
19:00 +6°C° 0 mm 11 m/s 741 mmHg 68%
20:00 +6°C° 0 mm 11 m/s 741 mmHg 69%
21:00 +6°C° 0 mm 11 m/s 740 mmHg 70%
22:00 +6°C° 0.1 mm 11 m/s 740 mmHg 72%
23:00 +7°C° 0.1 mm 11 m/s 739 mmHg 73%

21 Ianuarie, Joi

Timp Temperatura Precipitaţii Vânt Presiune Umiditate
00:00 +7°C° 0.1 mm 11 m/s 738 mmHg 74%
01:00 +7°C° 0 mm 12 m/s 737 mmHg 74%
02:00 +7°C° 0 mm 13 m/s 736 mmHg 74%
03:00 +8°C° 0 mm 14 m/s 734 mmHg 74%
04:00 +6°C° 0.8 mm 14 m/s 735 mmHg 73%
05:00 +5°C° 0.8 mm 13 m/s 735 mmHg 73%
06:00 +4°C° 0.8 mm 13 m/s 736 mmHg 73%
07:00 +3°C° 0 mm 12 m/s 737 mmHg 71%
08:00 +3°C° 0 mm 11 m/s 738 mmHg 70%
09:00 +3°C° 0 mm 11 m/s 738 mmHg 69%
10:00 +4°C° 0 mm 11 m/s 739 mmHg 67%
11:00 +4°C° 0 mm 12 m/s 739 mmHg 66%
12:00 +5°C° 0 mm 12 m/s 739 mmHg 64%
13:00 +5°C° 0 mm 13 m/s 739 mmHg 66%
14:00 +4°C° 0 mm 13 m/s 738 mmHg 68%
15:00 +4°C° 0 mm 13 m/s 738 mmHg 70%
16:00 +4°C° 0.1 mm 13 m/s 738 mmHg 71%
17:00 +4°C° 0.1 mm 13 m/s 738 mmHg 73%
18:00 +4°C° 0.1 mm 12 m/s 738 mmHg 74%
19:00 +3°C° 0.1 mm 11 m/s 738 mmHg 75%
20:00 +3°C° 0.1 mm 10 m/s 738 mmHg 76%
21:00 +3°C° 0.1 mm 9 m/s 738 mmHg 78%
22:00 +4°C° 0 mm 8 m/s 738 mmHg 78%
23:00 +4°C° 0 mm 7 m/s 738 mmHg 79%

22 Ianuarie, Vineri

Timp Temperatura Precipitaţii Vânt Presiune Umiditate
00:00 +3°C° 0 mm 7 m/s 737 mmHg 80%
01:00 +3°C° 0 mm 7 m/s 738 mmHg 79%
02:00 +3°C° 0 mm 7 m/s 738 mmHg 78%
03:00 +3°C° 0 mm 7 m/s 738 mmHg 78%
04:00 +2°C° 0 mm 8 m/s 739 mmHg 78%
05:00 +2°C° 0 mm 8 m/s 739 mmHg 77%
06:00 +2°C° 0 mm 9 m/s 739 mmHg 77%
07:00 +2°C° 0 mm 9 m/s 740 mmHg 76%
08:00 +2°C° 0 mm 9 m/s 740 mmHg 74%
09:00 +2°C° 0 mm 10 m/s 741 mmHg 73%
10:00 +2°C° 0 mm 10 m/s 741 mmHg 71%
11:00 +3°C° 0 mm 10 m/s 742 mmHg 69%
12:00 +3°C° 0 mm 10 m/s 743 mmHg 68%
13:00 +3°C° 0 mm 9 m/s 743 mmHg 69%
14:00 +3°C° 0 mm 9 m/s 744 mmHg 69%
15:00 +2°C° 0 mm 8 m/s 744 mmHg 70%
16:00 +2°C° 0.1 mm 8 m/s 744 mmHg 72%
17:00 +3°C° 0.1 mm 7 m/s 745 mmHg 75%
18:00 +2°C° 0.1 mm 6 m/s 745 mmHg 77%
19:00 +2°C° 0.3 mm 6 m/s 745 mmHg 78%
20:00 +2°C° 0.3 mm 6 m/s 746 mmHg 79%
21:00 +2°C° 0.3 mm 5 m/s 746 mmHg 80%
22:00 +2°C° 0.4 mm 6 m/s 746 mmHg 79%
23:00 +2°C° 0.4 mm 6 m/s 746 mmHg 79%

23 Ianuarie, Sâmbătă

Timp Temperatura Precipitaţii Vânt Presiune Umiditate
00:00 +2°C° 0.4 mm 6 m/s 746 mmHg 79%
01:00 +1°C° 0.1 mm 6 m/s 746 mmHg 80%
02:00 +1°C° 0.1 mm 5 m/s 746 mmHg 81%
03:00 +1°C° 0.1 mm 5 m/s 746 mmHg 82%
04:00 0°C° 0 mm 5 m/s 746 mmHg 83%
05:00 0°C° 0 mm 4 m/s 746 mmHg 85%
06:00 0°C° 0 mm 4 m/s 746 mmHg 86%
07:00 0°C° 0 mm 4 m/s 746 mmHg 87%
08:00 0°C° 0 mm 4 m/s 746 mmHg 87%
09:00 +1°C° 0 mm 3 m/s 746 mmHg 87%
10:00 +1°C° 0 mm 3 m/s 745 mmHg 86%
11:00 +2°C° 0 mm 3 m/s 745 mmHg 84%
12:00 +3°C° 0 mm 2 m/s 744 mmHg 83%
13:00 +3°C° 0.2 mm 2 m/s 744 mmHg 86%
14:00 +3°C° 0.2 mm 2 m/s 744 mmHg 88%
15:00 +3°C° 0.2 mm 2 m/s 744 mmHg 91%
16:00 +3°C° 0.3 mm 2 m/s 744 mmHg 92%
17:00 +2°C° 0.3 mm 2 m/s 744 mmHg 92%
18:00 +2°C° 0.3 mm 2 m/s 745 mmHg 93%
19:00 +3°C° 0.1 mm 1 m/s 745 mmHg 92%
20:00 +2°C° 0.1 mm 1 m/s 745 mmHg 91%
21:00 +2°C° 0.1 mm 1 m/s 745 mmHg 90%
22:00 +1°C° 0.1 mm 2 m/s 746 mmHg 89%
23:00 +1°C° 0.1 mm 2 m/s 746 mmHg 88%
Arată mai mult

Formular de consimțământ

Meteoprog și furnizorii noștri de servicii pot stoca și accesa date personale, precum cookies, identificatori de dispozitiv sau alte tehnologii similare pe dispozitivul dumneavoastră și procesa astfel de date pentru a personaliza conținutul și reclamele, dar și pentru a oferi caracteristici de social media și pentru a analiza traficul.

  • Stocarea și/sau accesarea informațiilor pe dispozitivul dumneavoastră

    Cookies, identificatori de dispozitiv sau alte informații pot fi stocate sau accesate pe dispozitiv în scopurile indicate mai sus.

  • Reclame și conținut personalizat, evaluarea reclamelor și a conținutului, informații despre audiențe și dezvoltarea produselor

    Reclamele și conținutul pot fi personalizate pe baza unui profil. Pot fi adăugate date suplimentare pentru a personaliza mai bine reclamele și conținutul. Performanța reclamelor și conținutului poate fi măsurată. Pot fi obținute informații despre utilizatorii care au văzut reclamele și conținutul. Aceste date pot fi utilizate pentru a dezvolta sau îmbunătăți experiența utilizatorilor, sistemele și software-ul.

Dând clic pe ‘Sunt de acord’, permiteți utilizarea cookie-urilor menționate, a identificatorilor de dispozitiv, balizelor web sau altor tehnologii similare. Setările pot fi modificate din browser-ul dispozitivului dumneavoastră.

În anumite scopuri, interesele legitime pot prima asupra consimțământului. Puteți citi mai multe informații în acest sens în Politica privind Confidențialitatea Datelor și Cookie.